Etusivu
METAR-TAF:

METAR-TAF

Lentoasemat :

Friday Harbor Airport

Friday Harbor, Washington, Yhdysvallat

Leveyspiiri: 48-31-13N, Pituuspiiri: 123-01-31W, korkeus merenpinnasta: 33 m

Tämänhetkinen sää

Tämä raportti tehtiin 40 minuuttia sitten, kello 12.53 UTC
Tuuli 3 kn eri suunnista
Lämpötila 14°C
Kosteus 82%
Ilmanpaine 1021 hPa
Näkyvyys: 16.1 km
selkeää

METAR: KFHR 291253Z AUTO VRB03KT 10SM CLR 14/11 A3014 RMK AO2 SLP205 T01390111 TSNO

Aika: 06:33 (13:33 UTC)


TAF: puuttuu

Säähavainnot ja -ennusteet yli 4000 lentoasemalta (METAR- ja TAF-raportit).

Käytössä olevat sääasemat on merkitty karttaan keltaisilla ja punaisilla pisteillä.

Aseta hiiri pisteen päälle nähdäksesi sääaseman nimen.

Klikkaa sitten nähdäksesi säähavainnot ja -ennusteet.

Kartan vaihtaminen: klikkaa mustalla rastilla varustettuja vihreitä pisteitä, niin voit zoomata sisään; viivalla varustettua vihreää pistettä, niin voit zoomata ulos tai vihreitä nuolia, niin pääset viereisille kartoille.


METAR-TAF: